| time (UTC) | temp C | wind direction | speed KPH | gust KPH | rain 1hr cm | rain 24hr cm | rain mn cm | humidity % | barometer mb |
| 20260505025024 | 19 | 105 | 1.6 | 4.8 | 0.00 | 0.00 | 0.00 | 84 | 1017.5 |
| 20260505024549 | 19 | 121 | 0.0 | 4.8 | 0.00 | 0.00 | 0.00 | 83 | 1017.5 |
| 20260505024020 | 19 | 96 | 1.6 | 4.8 | 0.00 | 0.00 | 0.00 | 83 | 1017.4 |
| 20260505023519 | 19 | 111 | 1.6 | 4.8 | 0.00 | 0.00 | 0.00 | 83 | 1017.4 |
| 20260505023055 | 20 | 112 | 0.0 | 4.8 | 0.00 | 0.00 | 0.00 | 82 | 1017.4 |
| 20260505022518 | 20 | 98 | 1.6 | 4.8 | 0.00 | 0.00 | 0.00 | 82 | 1017.5 |
| 20260505022027 | 20 | 81 | 1.6 | 4.8 | 0.00 | 0.00 | 0.00 | 81 | 1017.3 |
| 20260505021602 | 20 | 89 | 3.2 | 6.4 | 0.00 | 0.00 | 0.00 | 81 | 1017.2 |
| 20260505021032 | 20 | 78 | 3.2 | 6.4 | 0.00 | 0.00 | 0.00 | 80 | 1017.1 |
| 20260505020520 | 20 | 109 | 1.6 | 6.4 | 0.00 | 0.00 | 0.00 | 79 | 1017.3 |
| 20260505020050 | 21 | 118 | 3.2 | 6.4 | 0.00 | 0.00 | 0.00 | 79 | 1017.1 |
| 20260505015518 | 21 | 117 | 1.6 | 6.4 | 0.00 | 0.00 | 0.00 | 79 | 1017.3 |
| 20260505015018 | 21 | 99 | 3.2 | 11.3 | 0.00 | 0.00 | 0.00 | 78 | 1017.0 |
| 20260505014546 | 21 | 104 | 3.2 | 11.3 | 0.00 | 0.00 | 0.00 | 78 | 1017.0 |
| 20260505014021 | 21 | 61 | 3.2 | 9.7 | 0.00 | 0.00 | 0.00 | 78 | 1016.9 |
| 20260505013520 | 21 | 88 | 3.2 | 9.7 | 0.00 | 0.00 | 0.00 | 78 | 1016.9 |
| 20260505013045 | 21 | 76 | 4.8 | 12.9 | 0.00 | 0.00 | 0.00 | 77 | 1017.1 |
| 20260505012519 | 21 | 73 | 4.8 | 12.9 | 0.00 | 0.00 | 0.00 | 77 | 1017.0 |
| 20260505012021 | 21 | 99 | 4.8 | 12.9 | 0.00 | 0.00 | 0.00 | 77 | 1016.7 |
| 20260505011546 | 21 | 105 | 4.8 | 11.3 | 0.00 | 0.00 | 0.00 | 77 | 1017.0 |
| 20260505011019 | 21 | 93 | 3.2 | 14.5 | 0.00 | 0.00 | 0.00 | 77 | 1016.8 |
| 20260505010517 | 21 | 51 | 3.2 | 14.5 | 0.00 | 0.00 | 0.00 | 77 | 1016.8 |
| 20260505010106 | 21 | 92 | 3.2 | 9.7 | 0.00 | 0.00 | 0.00 | 77 | 1016.6 |
| 20260505005518 | 22 | 85 | 4.8 | 9.7 | 0.00 | 0.00 | 0.00 | 77 | 1016.6 |
| 20260505005019 | 22 | 77 | 3.2 | 6.4 | 0.00 | 0.00 | 0.00 | 76 | 1016.5 |
| 20260505004547 | 22 | 111 | 1.6 | 9.7 | 0.00 | 0.00 | 0.00 | 75 | 1016.7 |
| 20260505004018 | 22 | 98 | 3.2 | 9.7 | 0.00 | 0.00 | 0.00 | 75 | 1016.8 |
| 20260505003521 | 22 | 68 | 3.2 | 11.3 | 0.00 | 0.00 | 0.00 | 74 | 1016.8 |
| 20260505003044 | 22 | 83 | 4.8 | 11.3 | 0.00 | 0.00 | 0.00 | 74 | 1016.8 |
| 20260505002517 | 22 | 82 | 4.8 | 14.5 | 0.00 | 0.00 | 0.00 | 74 | 1016.5 |
| 20260505002018 | 22 | 115 | 4.8 | 16.1 | 0.00 | 0.00 | 0.00 | 73 | 1016.5 |
| 20260505001557 | 22 | 74 | 3.2 | 16.1 | 0.00 | 0.00 | 0.00 | 73 | 1016.1 |
| 20260505001020 | 23 | 85 | 6.4 | 16.1 | 0.00 | 0.00 | 0.00 | 72 | 1016.2 |
| 20260505000730 | 23 | 87 | 8.0 | 16.1 | 0.00 | 0.00 | 0.00 | 71 | 1015.9 |
| 20260505000047 | 23 | 76 | 6.4 | 17.7 | 0.00 | 0.00 | 0.00 | 71 | 1015.7 |
| 20260504235513 | 23 | 125 | 8.0 | 17.7 | 0.00 | 0.00 | 0.00 | 71 | 1015.8 |
| 20260504235015 | 23 | 65 | 6.4 | 17.7 | 0.00 | 0.00 | 0.00 | 71 | 1015.8 |
| 20260504234540 | 23 | 84 | 4.8 | 16.1 | 0.00 | 0.00 | 0.00 | 71 | 1015.7 |
| 20260504234015 | 23 | 90 | 6.4 | 17.7 | 0.00 | 0.00 | 0.00 | 70 | 1015.6 |
| 20260504233515 | 24 | 92 | 3.2 | 17.7 | 0.00 | 0.00 | 0.00 | 70 | 1015.7 |
| 20260504233039 | 24 | 83 | 8.0 | 17.7 | 0.00 | 0.00 | 0.00 | 69 | 1015.8 |
| 20260504232516 | 25 | 42 | 9.7 | 22.5 | 0.00 | 0.00 | 0.00 | 67 | 1015.6 |
| 20260504232013 | 25 | 52 | 9.7 | 22.5 | 0.00 | 0.00 | 0.00 | 66 | 1015.7 |
| 20260504231539 | 25 | 51 | 6.4 | 17.7 | 0.00 | 0.00 | 0.00 | 66 | 1015.7 |
| 20260504231019 | 25 | 55 | 6.4 | 16.1 | 0.00 | 0.00 | 0.00 | 66 | 1015.6 |
| 20260504230515 | 25 | 34 | 6.4 | 17.7 | 0.00 | 0.00 | 0.00 | 65 | 1015.4 |
| 20260504230052 | 25 | 92 | 6.4 | 17.7 | 0.00 | 0.00 | 0.00 | 64 | 1015.4 |
| 20260504225519 | 25 | 105 | 6.4 | 22.5 | 0.00 | 0.00 | 0.00 | 63 | 1015.4 |
| 20260504225013 | 26 | 100 | 11.3 | 22.5 | 0.00 | 0.00 | 0.00 | 63 | 1015.5 |
| 20260504224544 | 26 | 102 | 11.3 | 19.3 | 0.00 | 0.00 | 0.00 | 63 | 1015.5 |
| 20260504224018 | 26 | 68 | 8.0 | 16.1 | 0.00 | 0.00 | 0.00 | 63 | 1015.6 |
| 20260504223515 | 26 | 15 | 4.8 | 16.1 | 0.00 | 0.00 | 0.00 | 63 | 1015.6 |
| 20260504223043 | 26 | 88 | 6.4 | 16.1 | 0.00 | 0.00 | 0.00 | 62 | 1015.5 |
| 20260504222515 | 26 | 74 | 8.0 | 19.3 | 0.00 | 0.00 | 0.00 | 61 | 1015.5 |
| 20260504222014 | 26 | 89 | 11.3 | 19.3 | 0.00 | 0.00 | 0.00 | 61 | 1015.6 |
| 20260504221542 | 27 | 64 | 11.3 | 20.9 | 0.00 | 0.00 | 0.00 | 60 | 1015.6 |
| 20260504221013 | 27 | 35 | 9.7 | 20.9 | 0.00 | 0.00 | 0.00 | 60 | 1015.6 |
| 20260504220517 | 27 | 82 | 9.7 | 19.3 | 0.00 | 0.00 | 0.00 | 59 | 1015.6 |
| 20260504220056 | 27 | 82 | 9.7 | 20.9 | 0.00 | 0.00 | 0.00 | 58 | 1015.5 |
| 20260504215518 | 27 | 96 | 14.5 | 20.9 | 0.00 | 0.00 | 0.00 | 58 | 1015.4 |
| 20260504215014 | 27 | 107 | 8.0 | 20.9 | 0.00 | 0.00 | 0.00 | 58 | 1015.6 |
| 20260504214539 | 27 | 88 | 8.0 | 20.9 | 0.00 | 0.00 | 0.00 | 59 | 1015.5 |
| 20260504214017 | 27 | 103 | 6.4 | 16.1 | 0.00 | 0.00 | 0.00 | 59 | 1015.5 |
| 20260504213516 | 27 | 111 | 11.3 | 16.1 | 0.00 | 0.00 | 0.00 | 58 | 1015.4 |
| 20260504213104 | 27 | 74 | 6.4 | 19.3 | 0.00 | 0.00 | 0.00 | 58 | 1015.5 |
| 20260504212515 | 27 | 96 | 9.7 | 19.3 | 0.00 | 0.00 | 0.00 | 57 | 1015.5 |
| 20260504212017 | 27 | 82 | 8.0 | 19.3 | 0.00 | 0.00 | 0.00 | 56 | 1015.4 |
| 20260504211544 | 27 | 57 | 8.0 | 17.7 | 0.00 | 0.00 | 0.00 | 58 | 1015.3 |
| 20260504211016 | 27 | 70 | 6.4 | 17.7 | 0.00 | 0.00 | 0.00 | 59 | 1015.6 |
| 20260504210515 | 27 | 60 | 9.7 | 16.1 | 0.00 | 0.00 | 0.00 | 57 | 1015.6 |
| 20260504210040 | 27 | 73 | 6.4 | 20.9 | 0.00 | 0.00 | 0.00 | 60 | 1015.7 |
| 20260504205518 | 27 | 44 | 8.0 | 22.5 | 0.00 | 0.00 | 0.00 | 59 | 1015.6 |
| 20260504205014 | 27 | 61 | 11.3 | 22.5 | 0.00 | 0.00 | 0.00 | 59 | 1015.7 |
| 20260504204543 | 27 | 24 | 9.7 | 20.9 | 0.00 | 0.00 | 0.00 | 58 | 1015.5 |
| 20260504204015 | 27 | 113 | 9.7 | 19.3 | 0.00 | 0.00 | 0.00 | 58 | 1015.5 |
| 20260504203516 | 28 | 130 | 6.4 | 19.3 | 0.00 | 0.00 | 0.00 | 55 | 1015.5 |
| 20260504203050 | 28 | 60 | 9.7 | 19.3 | 0.00 | 0.00 | 0.00 | 56 | 1015.6 |
| 20260504202540 | 28 | 347 | 8.0 | 17.7 | 0.00 | 0.00 | 0.00 | 56 | 1015.7 |
| 20260504202016 | 28 | 50 | 8.0 | 17.7 | 0.00 | 0.00 | 0.00 | 55 | 1015.7 |
| 20260504201549 | 28 | 61 | 8.0 | 17.7 | 0.00 | 0.00 | 0.00 | 55 | 1015.8 |
| 20260504201017 | 28 | 352 | 4.8 | 19.3 | 0.00 | 0.00 | 0.00 | 54 | 1015.8 |
| 20260504200515 | 28 | 97 | 8.0 | 19.3 | 0.00 | 0.00 | 0.00 | 55 | 1015.9 |
| 20260504200046 | 28 | 95 | 8.0 | 17.7 | 0.00 | 0.00 | 0.00 | 55 | 1016.0 |
| 20260504195516 | 28 | 62 | 9.7 | 17.7 | 0.00 | 0.00 | 0.00 | 54 | 1015.9 |
| 20260504195018 | 28 | 24 | 8.0 | 17.7 | 0.00 | 0.00 | 0.00 | 58 | 1015.9 |
| 20260504194543 | 27 | 5 | 8.0 | 19.3 | 0.00 | 0.00 | 0.00 | 57 | 1016.3 |
| 20260504194029 | 27 | 352 | 8.0 | 19.3 | 0.00 | 0.00 | 0.00 | 57 | 1016.2 |
| 20260504193518 | 27 | 54 | 8.0 | 17.7 | 0.00 | 0.00 | 0.00 | 59 | 1016.3 |
| 20260504193054 | 27 | 82 | 4.8 | 14.5 | 0.00 | 0.00 | 0.00 | 59 | 1016.3 |
| 20260504192516 | 27 | 46 | 8.0 | 16.1 | 0.00 | 0.00 | 0.00 | 59 | 1016.3 |
| 20260504192014 | 27 | 49 | 8.0 | 16.1 | 0.00 | 0.00 | 0.00 | 56 | 1016.3 |
| 20260504191545 | 27 | 80 | 8.0 | 16.1 | 0.00 | 0.00 | 0.00 | 55 | 1016.5 |
| 20260504191016 | 27 | 67 | 6.4 | 19.3 | 0.00 | 0.00 | 0.00 | 57 | 1016.5 |
| 20260504190518 | 27 | 124 | 6.4 | 19.3 | 0.00 | 0.00 | 0.00 | 55 | 1016.6 |
| 20260504190059 | 27 | 78 | 8.0 | 17.7 | 0.00 | 0.00 | 0.00 | 57 | 1016.6 |
| 20260504185517 | 27 | 51 | 6.4 | 16.1 | 0.00 | 0.00 | 0.00 | 57 | 1016.9 |
| 20260504185020 | 27 | 107 | 4.8 | 19.3 | 0.00 | 0.00 | 0.00 | 57 | 1017.0 |
| 20260504184550 | 27 | 15 | 9.7 | 19.3 | 0.00 | 0.00 | 0.00 | 57 | 1017.0 |
| 20260504184020 | 27 | 28 | 6.4 | 16.1 | 0.00 | 0.00 | 0.00 | 59 | 1017.0 |
| 20260504183516 | 27 | 65 | 4.8 | 19.3 | 0.00 | 0.00 | 0.00 | 60 | 1017.2 |
| 20260504183055 | 27 | 65 | 6.4 | 19.3 | 0.00 | 0.00 | 0.00 | 58 | 1017.3 |
| 20260504182516 | 27 | 352 | 6.4 | 16.1 | 0.00 | 0.00 | 0.00 | 59 | 1017.3 |
| 20260504182018 | 27 | 67 | 6.4 | 19.3 | 0.00 | 0.00 | 0.00 | 58 | 1017.6 |
| 20260504181545 | 27 | 30 | 11.3 | 19.3 | 0.00 | 0.00 | 0.00 | 56 | 1017.5 |
| 20260504181017 | 27 | 57 | 8.0 | 16.1 | 0.00 | 0.00 | 0.00 | 58 | 1017.5 |
| 20260504180518 | 27 | 86 | 6.4 | 19.3 | 0.00 | 0.00 | 0.00 | 58 | 1017.5 |
| 20260504180130 | 27 | 104 | 8.0 | 19.3 | 0.00 | 0.00 | 0.00 | 57 | 1017.7 |
| 20260504175559 | 27 | 69 | 6.4 | 20.9 | 0.00 | 0.00 | 0.00 | 57 | 1017.7 |
| 20260504175024 | 27 | 27 | 11.3 | 20.9 | 0.00 | 0.00 | 0.00 | 57 | 1017.9 |
| 20260504174608 | 27 | 20 | 6.4 | 16.1 | 0.00 | 0.00 | 0.00 | 57 | 1018.0 |
| 20260504174023 | 26 | 42 | 6.4 | 19.3 | 0.00 | 0.00 | 0.00 | 56 | 1017.9 |
| 20260504173526 | 27 | 39 | 6.4 | 19.3 | 0.00 | 0.00 | 0.00 | 55 | 1017.8 |
| 20260504173319 | 27 | 85 | 4.8 | 17.7 | 0.00 | 0.00 | 0.00 | 54 | 1018.0 |
| 20260504172517 | 27 | 30 | 6.4 | 17.7 | 0.00 | 0.00 | 0.00 | 57 | 1017.9 |
| 20260504172021 | 27 | 50 | 4.8 | 19.3 | 0.00 | 0.00 | 0.00 | 55 | 1017.9 |
| 20260504171552 | 27 | 30 | 6.4 | 19.3 | 0.00 | 0.00 | 0.00 | 56 | 1017.9 |
| 20260504171016 | 27 | 56 | 8.0 | 22.5 | 0.00 | 0.00 | 0.00 | 55 | 1017.8 |
| 20260504170517 | 27 | 352 | 6.4 | 22.5 | 0.00 | 0.00 | 0.00 | 58 | 1017.9 |
| 20260504170433 | 26 | 59 | 9.7 | 22.5 | 0.00 | 0.00 | 0.00 | 55 | 1018.0 |
| 20260504151018 | 25 | 62 | 8.0 | 24.1 | 0.00 | 0.00 | 0.00 | 60 | 1019.0 |
| 20260504150515 | 25 | 73 | 12.9 | 24.1 | 0.00 | 0.00 | 0.00 | 61 | 1019.2 |
| 20260504141016 | 23 | 45 | 9.7 | 24.1 | 0.00 | 0.00 | 0.00 | 70 | 1018.6 |
| 20260504140515 | 23 | 19 | 12.9 | 24.1 | 0.00 | 0.00 | 0.00 | 69 | 1018.7 |
| 20260504130517 | 22 | 360 | 6.4 | 16.1 | 0.00 | 0.00 | 0.00 | 76 | 1018.1 |
| 20260504120110 | 19 | 360 | 3.2 | 12.9 | 0.00 | 0.00 | 0.00 | 84 | 1017.7 |
| 20260504110522 | 16 | 305 | 3.2 | 6.4 | 0.00 | 0.00 | 0.00 | 90 | 1017.3 |
| 20260504110108 | 16 | 295 | 3.2 | 6.4 | 0.00 | 0.00 | 0.00 | 90 | 1017.3 |
| 20260504100513 | 17 | 326 | 3.2 | 6.4 | 0.00 | 0.00 | 0.00 | 89 | 1016.9 |
| 20260504081542 | 18 | 337 | 0.0 | 3.2 | 0.00 | 0.08 | 0.00 | 88 | 1016.7 |
| 20260504081015 | 18 | 317 | 0.0 | 4.8 | 0.00 | 0.08 | 0.00 | 88 | 1016.6 |
| 20260504080513 | 18 | 9 | 0.0 | 4.8 | 0.00 | 0.08 | 0.00 | 88 | 1016.9 |
| 20260504050518 | 19 | 30 | 3.2 | 8.0 | 0.00 | 0.20 | 0.00 | 84 | 1018.1 |
| 20260504045515 | 20 | 352 | 3.2 | 9.7 | 0.00 | 0.20 | 0.00 | 84 | 1018.3 |
| 20260504045019 | 19 | 5 | 3.2 | 9.7 | 0.00 | 0.20 | 0.00 | 84 | 1018.3 |
| 20260504044550 | 20 | 350 | 1.6 | 12.9 | 0.00 | 0.20 | 0.00 | 83 | 1018.4 |
| 20260504044016 | 20 | 319 | 3.2 | 12.9 | 0.00 | 0.20 | 0.00 | 83 | 1018.4 |
| 20260504043516 | 20 | 352 | 1.6 | 8.0 | 0.00 | 0.20 | 0.00 | 83 | 1018.5 |
| 20260504043101 | 20 | 329 | 1.6 | 12.9 | 0.00 | 0.20 | 0.00 | 83 | 1018.5 |
| 20260504042516 | 20 | 322 | 4.8 | 12.9 | 0.00 | 0.20 | 0.00 | 83 | 1018.5 |
| 20260504042021 | 20 | 22 | 1.6 | 9.7 | 0.00 | 0.20 | 0.00 | 82 | 1018.6 |
| 20260504041551 | 20 | 53 | 3.2 | 12.9 | 0.00 | 0.20 | 0.00 | 82 | 1018.5 |
| 20260504041016 | 20 | 13 | 4.8 | 14.5 | 0.00 | 0.20 | 0.00 | 82 | 1018.6 |
| 20260504040516 | 20 | 19 | 6.4 | 14.5 | 0.00 | 0.20 | 0.00 | 82 | 1018.6 |
| 20260504040104 | 20 | 28 | 4.8 | 12.9 | 0.00 | 0.20 | 0.00 | 82 | 1018.7 |
| 20260504035517 | 20 | 5 | 4.8 | 12.9 | 0.00 | 0.20 | 0.20 | 83 | 1018.7 |
| 20260504035015 | 20 | 70 | 1.6 | 11.3 | 0.00 | 0.20 | 0.20 | 83 | 1018.8 |
| 20260504034615 | 20 | 13 | 4.8 | 11.3 | 0.00 | 0.20 | 0.20 | 83 | 1018.8 |
| 20260504034016 | 20 | 49 | 1.6 | 9.7 | 0.00 | 0.20 | 0.20 | 83 | 1018.6 |
| 20260504033517 | 20 | 90 | 1.6 | 9.7 | 0.00 | 0.20 | 0.20 | 82 | 1018.4 |
| 20260504033106 | 20 | 130 | 3.2 | 12.9 | 0.00 | 0.20 | 0.20 | 82 | 1018.7 |
| 20260504032516 | 20 | 17 | 4.8 | 12.9 | 0.00 | 0.20 | 0.20 | 82 | 1018.7 |
| 20260504032019 | 20 | 93 | 4.8 | 11.3 | 0.00 | 0.20 | 0.20 | 81 | 1018.7 |
| 20260504031602 | 20 | 61 | 3.2 | 14.5 | 0.00 | 0.20 | 0.20 | 81 | 1018.6 |
| 20260504031017 | 20 | 51 | 6.4 | 14.5 | 0.00 | 0.20 | 0.20 | 81 | 1018.7 |
| 20260504030517 | 21 | 70 | 4.8 | 9.7 | 0.00 | 0.20 | 0.20 | 81 | 1018.5 |
| 20260504030057 | 21 | 76 | 3.2 | 16.1 | 0.00 | 0.20 | 0.20 | 81 | 1018.4 |
| 20260504025516 | 21 | 63 | 6.4 | 16.1 | 0.00 | 0.20 | 0.20 | 81 | 1018.4 |